Wind_Speed
71 71 72 72 72 72 72 72 72 72 72 72 72 73 73 73 73 73 72 72 73 73 73 73 73 73 73 73 73 73 73 72 72 72 71 71 71 71 70 70 70 70 70 70 70 70 71 71 71 70 70 70 70 71 71 70 70 68 66 67 69 73 78 84 86 86 86 86 86 86 87 87 86 85 82 80 79 81 82 84 86 86 85 83 81 80 78 78
71 72 72 73 73 73 73 73 73 73 72 72 72 72 72 72 72 72 72 72 72 72 72 72 72 71 71 70 69 69 68 67 67 66 66 67 67 67 67 67 68 68 68 68 69 69 69 69 69 69 69 69 69 68 68 68 67 65 65 64 67 73 78 81 82 81 81 81 82 83 85 85 85 84 82 79 80 81 82 84 85 85 84 84 82 80 79 79
71 72 72 73 73 73 73 73 73 73 72 72 72 72 72 72 71 71 72 72 71 71 71 71 71 70 69 68 66 65 64 63 63 62 62 63 63 64 64 65 66 66 67 67 68 68 68 68 68 68 68 68 68 67 66 66 65 64 63 63 68 75 77 78 78 77 76 76 77 79 80 81 81 81 79 78 79 80 82 84 84 83 83 83 82 80 80 79
70 71 71 72 72 72 72 73 72 72 72 72 72 72 72 72 72 72 72 72 71 71 71 71 70 69 67 65 63 62 62 61 61 61 61 61 61 61 62 63 64 65 66 67 67 67 68 68 68 68 68 68 68 66 66 65 64 63 61 63 71 74 75 77 76 74 73 72 73 74 75 75 76 76 75 75 77 78 81 82 82 81 82 82 81 80 79 79
69 69 70 71 71 72 72 72 72 72 72 72 73 73 73 73 72 72 72 72 72 71 71 70 69 67 65 64 62 60 60 61 60 60 60 60 60 60 61 62 63 64 65 66 66 67 67 68 68 68 68 68 68 67 67 66 64 62 62 66 72 74 75 76 74 72 71 70 70 71 71 72 72 72 72 73 74 76 78 79 78 78 79 81 81 80 78 77
69 70 70 71 71 72 72 72 73 73 73 73 73 73 73 73 73 73 73 72 72 72 71 69 68 66 64 63 62 60 60 60 60 60 60 60 60 60 61 62 63 64 65 65 66 67 67 67 68 68 69 69 68 68 68 67 65 63 64 68 73 74 76 76 72 71 71 69 69 70 70 70 70 71 71 71 73 75 75 74 74 75 76 78 78 76 75 74
71 72 72 72 73 73 73 74 74 74 74 74 74 74 74 74 74 73 73 73 72 71 70 68 67 65 64 63 63 62 61 60 60 61 61 60 60 61 62 63 63 64 65 66 66 67 67 67 68 69 69 69 69 70 70 68 66 65 66 71 75 76 78 76 73 72 71 70 70 70 70 70 70 72 72 72 74 73 70 69 71 73 73 74 73 73 72 71
73 74 74 74 74 75 75 75 75 75 76 76 75 75 75 75 75 74 73 73 72 71 69 67 66 65 64 64 64 63 62 61 61 62 62 62 61 62 62 63 64 65 65 66 66 67 67 68 69 69 70 70 70 71 71 69 67 68 69 73 76 77 79 77 74 73 72 71 70 71 71 71 72 74 73 73 74 71 68 68 70 72 72 72 71 71 70 70
71 72 73 73 74 74 74 74 75 75 75 75 75 75 75 75 74 74 73 71 70 69 68 67 66 65 65 64 64 64 63 62 62 63 63 64 63 62 63 64 64 65 65 66 66 67 68 69 69 69 70 71 70 71 72 70 69 71 73 75 77 78 80 78 75 74 73 72 71 72 72 72 74 75 74 74 73 70 68 69 71 72 72 71 70 69 69 69
67 68 69 70 70 71 71 72 72 73 73 74 74 74 73 73 72 72 70 69 68 67 66 65 65 65 64 64 64 64 63 63 63 64 64 64 64 63 64 64 64 65 65 65 66 67 67 68 68 68 69 70 70 71 71 70 71 72 73 75 76 77 79 78 75 74 74 72 71 72 71 73 75 76 75 74 73 70 70 71 71 71 71 70 69 69 68 68
62 63 64 65 66 67 68 69 70 70 71 71 71 71 71 70 69 69 67 66 66 65 65 65 64 64 64 64 63 63 63 63 63 63 63 63 63 63 63 63 63 63 63 63 64 64 64 65 65 65 65 67 67 68 68 68 69 69 70 71 73 75 76 76 74 74 74 71 71 70 69 73 75 75 75 74 71 69 70 72 70 70 71 70 69 68 68 67
57 59 61 62 63 64 65 66 67 68 68 68 68 68 68 67 67 66 65 65 64 64 64 64 64 63 64 64 62 61 62 63 62 62 62 62 62 61 61 61 61 60 60 60 60 61 61 61 60 61 62 63 63 64 64 64 65 65 65 67 69 71 72 72 72 72 71 69 70 69 69 74 76 74 75 73 70 69 71 72 70 70 70 69 68 67 67 67
52 55 57 60 61 63 63 64 65 66 66 66 67 66 66 66 65 64 64 63 63 63 62 62 62 62 63 62 60 60 61 61 61 61 61 62 61 59 59 59 58 58 58 57 58 58 59 59 58 59 60 60 61 61 61 62 62 62 62 63 66 68 67 68 69 68 67 67 68 67 68 74 74 73 75 72 69 68 69 69 68 68 68 67 67 66 66 65
50 51 53 55 58 61 62 63 64 65 65 65 66 66 66 65 65 65 64 64 63 63 62 61 61 61 62 61 59 59 59 59 59 59 60 61 60 58 58 58 57 57 57 57 57 58 58 58 57 58 59 59 60 60 60 60 59 60 60 61 64 65 64 67 67 66 66 66 67 65 66 71 72 71 72 70 66 65 65 66 66 66 65 65 65 64 64 64
50 50 51 53 55 57 59 62 63 64 65 65 66 66 66 66 66 65 65 64 63 63 62 62 62 61 62 61 59 59 59 58 58 58 59 61 59 57 56 56 56 56 56 56 56 56 57 57 57 57 58 58 58 59 59 58 58 59 58 59 62 62 63 65 65 64 65 65 65 63 63 66 67 67 68 67 64 61 61 61 61 62 62 62 62 63 63 61
50 50 51 52 54 56 58 60 61 63 64 65 65 66 66 66 65 65 65 64 64 64 63 62 62 62 62 62 60 58 58 58 58 58 59 60 59 56 55 55 56 55 55 55 55 55 55 55 55 56 56 56 56 57 57 56 55 56 57 58 59 60 61 63 62 63 64 63 61 59 60 61 62 64 65 64 61 58 56 55 56 59 61 60 59 59 59 56
50 51 52 52 54 56 58 59 60 61 62 63 64 64 65 65 64 64 64 64 64 64 63 62 63 62 62 62 60 58 58 58 58 58 59 58 57 56 55 55 54 54 54 54 53 53 53 53 53 53 53 53 53 54 53 52 53 55 55 57 58 58 60 61 61 62 62 60 57 57 58 57 60 63 62 61 59 55 52 51 53 56 57 56 56 56 55 52
52 52 53 54 55 56 58 60 61 62 62 62 63 64 64 64 63 63 63 63 63 63 63 62 63 63 63 62 59 58 58 57 57 57 57 56 55 54 54 53 53 52 52 51 51 51 50 50 49 49 50 50 50 50 49 51 54 55 54 55 56 56 56 57 58 58 58 57 55 55 56 56 59 62 60 58 56 52 49 49 51 53 52 52 53 52 51 50
54 54 54 55 56 57 58 60 61 62 63 63 63 63 63 63 62 62 61 62 62 63 62 61 62 63 62 62 60 59 58 56 56 56 56 55 53 52 52 51 51 50 50 50 49 47 46 46 46 46 48 48 48 47 48 51 52 51 52 52 52 51 51 53 55 56 55 54 53 54 55 55 58 62 60 56 53 50 47 47 49 51 51 51 49 48 47 47
55 55 56 57 57 58 58 59 60 61 62 63 63 63 63 62 62 61 61 61 62 62 61 61 62 63 62 61 59 58 57 56 55 55 54 53 51 50 50 49 49 48 48 47 45 44 43 43 44 46 47 46 45 45 47 49 49 48 49 49 48 48 49 52 55 56 55 53 51 53 55 55 57 60 58 55 52 48 45 45 50 52 51 50 47 45 45 47
57 57 58 58 58 58 58 58 57 58 60 61 62 63 63 62 62 60 60 61 62 62 61 60 61 63 62 59 59 58 56 56 55 54 52 50 50 49 48 47 47 47 46 44 42 41 41 42 44 45 44 43 43 43 45 46 46 46 46 46 46 47 49 54 57 58 56 51 51 53 53 53 55 58 57 54 51 47 44 46 51 53 51 48 46 45 46 48
58 58 59 59 58 57 57 56 55 55 56 57 59 60 61 62 61 60 58 59 62 60 59 59 60 62 60 58 58 56 55 55 54 52 50 49 49 47 46 46 46 45 43 42 41 40 41 42 43 41 41 41 41 42 43 45 45 45 44 44 45 48 53 57 57 57 54 49 50 52 51 51 54 56 56 53 51 47 46 48 52 52 49 46 46 46 47 48
59 60 60 60 58 56 55 54 53 53 53 54 55 57 58 59 59 58 56 57 60 59 57 57 57 59 60 58 56 54 54 54 52 50 48 49 48 45 45 46 45 43 41 41 40 40 40 41 40 39 39 39 40 41 42 44 43 43 43 43 47 51 54 56 55 54 51 45 47 50 49 51 53 53 53 52 50 48 47 49 51 50 48 46 46 46 47 47
61 61 61 59 57 56 54 52 52 52 53 53 53 54 55 56 55 55 54 54 56 58 56 54 54 57 59 56 53 54 54 52 50 49 47 48 47 44 44 45 43 41 41 40 40 40 39 38 38 38 38 39 40 40 41 42 42 42 42 45 50 52 52 53 52 51 47 44 46 49 48 48 50 51 52 51 51 49 48 49 49 49 47 46 46 47 47 44
62 61 60 58 57 55 52 51 51 52 52 52 52 53 53 53 52 51 52 50 51 56 54 50 52 56 55 53 52 53 53 50 49 48 46 47 46 44 44 44 41 41 40 38 38 39 37 37 38 37 38 38 39 40 40 41 42 41 43 47 51 50 49 50 49 48 46 44 47 48 46 46 47 50 52 53 52 49 48 48 48 47 47 47 47 47 45 42
62 61 59 57 56 53 51 51 51 50 51 52 51 51 51 52 51 49 49 47 47 53 52 47 50 53 52 51 51 52 51 50 48 46 47 47 45 43 43 42 40 40 38 37 38 39 37 37 37 37 37 38 38 39 40 41 41 41 44 48 49 47 47 48 47 46 44 43 44 44 44 44 45 49 52 52 51 48 46 47 46 46 47 48 47 44 42 41
62 59 57 56 54 51 49 50 49 49 51 51 50 50 50 50 50 47 45 43 44 49 50 47 48 51 51 49 50 50 50 48 46 46 47 46 42 41 42 41 40 38 36 35 37 38 36 35 36 36 36 36 38 39 40 40 39 41 45 46 45 45 45 45 44 43 42 40 40 41 43 43 43 48 51 50 48 46 45 45 45 46 47 47 44 42 42 42
59 56 54 53 52 49 47 48 48 49 49 49 49 48 47 46 46 44 41 40 42 44 48 48 47 48 48 48 49 50 49 48 46 45 46 44 42 41 41 41 39 36 34 35 38 37 34 35 36 35 35 36 38 39 39 37 38 42 43 43 43 43 43 42 41 40 38 37 37 38 41 42 44 47 48 46 45 46 45 44 44 46 47 45 43 43 43 43
55 53 52 51 50 47 46 48 48 48 48 48 48 45 43 42 42 40 38 39 41 42 45 47 46 46 47 48 50 50 49 48 45 43 44 44 42 41 41 40 37 34 33 35 38 36 34 34 34 34 35 37 37 37 36 36 39 40 40 40 41 41 41 39 38 37 36 35 35 36 40 43 45 46 47 45 45 46 44 42 44 45 44 43 43 43 43 43
52 51 50 48 47 46 46 47 46 46 46 46 45 41 39 39 38 36 36 39 41 42 44 46 47 47 47 48 50 49 47 46 43 42 44 44 42 41 40 37 35 34 34 36 37 35 34 33 33 34 35 36 35 34 34 36 38 38 37 39 40 39 40 38 37 36 34 34 34 36 41 42 43 46 47 44 44 44 41 40 43 43 41 42 42 42 43 43
50 50 48 46 46 46 46 46 44 43 44 43 40 37 36 35 33 33 36 40 42 42 45 46 46 46 46 47 49 48 46 45 42 41 44 43 41 41 39 36 35 34 34 36 36 35 32 32 33 34 34 35 34 34 36 37 37 36 37 39 39 39 39 36 36 35 34 34 35 38 41 39 40 44 44 42 42 42 39 40 42 41 40 41 42 42 42 43
49 48 46 44 45 46 46 45 42 41 41 39 36 34 33 31 30 32 38 41 42 43 45 46 45 45 45 46 47 47 45 44 42 41 43 43 41 40 38 36 35 34 35 36 35 33 32 32 33 32 32 32 32 33 36 37 36 36 37 39 38 38 37 35 35 34 33 36 39 40 40 39 41 42 40 39 40 40 38 38 39 38 39 41 42 42 43 43
48 46 45 44 44 45 45 44 41 39 38 37 34 32 30 29 30 34 38 39 41 43 45 45 45 45 46 46 46 45 44 43 41 41 43 43 41 39 39 37 35 35 36 36 34 32 32 33 33 32 32 31 31 33 35 35 36 36 37 38 38 37 36 36 35 34 35 38 40 40 39 40 40 38 36 37 37 37 36 36 35 36 37 39 41 42 42 42
46 45 44 44 44 44 44 42 40 38 36 35 33 31 29 30 33 35 36 39 42 43 43 43 42 42 44 45 44 43 43 42 41 41 42 44 42 39 39 38 36 36 36 34 33 32 32 33 33 32 32 31 32 35 35 35 35 36 37 38 39 38 37 37 37 36 37 38 38 38 38 38 36 33 34 34 34 34 34 34 35 35 35 36 38 39 39 40
45 44 44 44 44 44 42 41 39 37 35 33 32 31 32 32 34 34 36 39 41 40 38 38 39 41 42 43 43 43 43 42 42 41 42 43 42 40 40 38 36 36 35 33 33 32 33 33 32 32 31 31 33 35 35 34 34 35 36 36 37 38 37 37 37 37 37 37 38 38 36 34 32 31 32 33 32 32 32 32 33 34 35 34 34 35 38 40
44 44 44 44 43 43 41 40 39 37 35 33 32 33 33 33 34 34 36 39 39 37 36 36 39 41 42 43 44 44 44 44 43 42 42 43 43 41 39 38 37 36 35 34 33 32 32 33 32 30 30 31 33 34 33 33 33 34 35 37 38 38 37 38 37 37 37 37 38 37 34 32 32 31 31 31 31 30 30 30 31 32 34 34 34 34 37 39
43 44 44 43 42 41 40 39 38 37 36 34 34 34 34 34 34 35 36 38 37 36 36 37 39 41 42 43 44 44 45 45 44 42 41 42 42 40 39 38 37 36 34 33 32 31 32 32 31 29 29 30 31 32 32 33 33 35 37 39 40 39 38 37 36 36 37 37 37 36 34 34 33 30 28 30 30 29 29 30 30 31 32 35 36 37 38 38
43 44 44 43 41 40 39 39 38 37 37 36 35 35 35 36 35 36 37 38 37 36 36 38 40 41 42 43 44 45 45 45 44 42 41 41 40 39 39 39 38 36 33 32 31 31 32 31 29 28 28 29 30 31 33 33 34 36 38 39 39 38 38 38 37 36 37 37 37 36 35 34 32 29 29 31 32 31 30 30 31 32 33 35 37 38 37 36
43 43 42 41 40 39 39 39 38 38 38 37 37 36 37 37 37 37 38 38 38 37 37 40 41 40 41 42 44 45 44 44 43 41 41 40 39 39 40 40 39 36 33 33 33 33 32 31 30 28 28 29 31 32 33 34 34 36 38 38 38 37 38 38 39 38 38 38 38 37 34 33 31 30 32 34 33 33 31 30 31 31 32 34 35 35 35 34
42 41 40 39 39 39 39 39 39 39 39 39 38 38 38 39 39 40 40 39 38 38 39 42 42 41 40 42 44 45 44 44 43 42 41 39 38 39 40 40 39 37 34 34 33 33 33 33 32 30 29 29 31 32 32 33 34 35 36 36 36 37 38 38 39 39 39 39 38 36 34 33 32 31 33 32 30 29 29 29 30 29 30 32 33 35 36 35
39 37 38 39 39 40 40 40 40 40 40 40 39 39 40 41 42 42 42 42 41 41 42 45 44 42 41 42 43 44 44 43 42 42 41 40 38 39 39 39 40 38 36 34 33 33 33 33 33 32 31 30 32 32 31 31 33 34 34 34 35 35 36 37 38 38 38 38 37 35 34 34 33 33 32 29 25 25 27 30 31 30 31 32 33 35 36 36
36 36 38 39 39 40 41 41 41 41 41 41 41 42 42 43 45 45 45 45 44 44 45 45 43 40 41 42 42 44 45 44 43 42 41 40 40 39 38 38 39 39 36 34 33 34 33 33 34 33 33 32 32 32 31 31 32 33 33 33 34 35 34 35 37 37 38 38 37 36 35 35 34 33 31 29 27 24 26 32 33 33 33 34 35 36 36 37
35 36 38 39 40 41 41 41 42 42 43 43 42 43 43 44 47 48 46 46 47 46 46 44 41 39 40 41 42 46 46 45 45 44 42 42 41 39 37 37 38 37 36 34 33 34 34 35 35 34 33 33 32 32 31 30 31 32 32 33 35 36 36 36 37 39 39 39 38 37 37 36 35 33 30 28 27 23 23 30 33 33 36 37 37 37 37 37
36 37 39 40 41 41 41 41 41 42 43 43 43 43 43 45 47 49 48 48 50 48 46 45 43 41 40 41 44 48 48 47 47 44 42 42 42 40 39 38 37 36 36 35 33 34 35 36 36 35 33 33 32 32 31 30 30 30 32 33 34 35 36 37 39 39 39 39 38 38 38 37 35 33 30 30 29 27 26 30 32 34 36 38 39 38 38 38
36 38 40 40 40 41 41 41 42 42 43 43 44 44 45 45 47 49 50 50 50 48 46 45 44 43 43 44 48 50 49 49 46 42 41 42 42 42 41 39 38 37 37 36 33 33 35 36 37 36 35 34 34 33 32 32 31 30 31 33 34 34 35 37 39 39 39 38 38 38 38 37 36 34 33 34 35 34 31 30 33 36 37 38 39 38 38 38
37 39 40 40 40 40 40 41 41 42 42 42 42 43 44 45 47 49 51 50 48 46 46 45 45 45 47 49 52 53 51 49 46 44 43 42 41 41 41 40 40 39 38 37 35 34 34 35 37 37 36 35 35 34 34 33 33 31 30 32 33 34 35 37 39 39 39 39 39 39 38 37 36 33 34 37 38 36 32 30 34 39 40 38 37 37 37 38
36 37 39 39 39 39 39 38 38 38 39 39 39 39 40 43 43 45 48 49 46 45 46 45 46 48 50 52 54 55 53 50 48 46 45 43 42 42 41 40 41 41 40 38 37 37 36 36 37 36 36 37 37 36 35 34 34 32 32 33 33 33 34 36 37 37 38 39 39 40 39 39 37 35 35 38 40 38 34 32 35 40 42 41 39 38 38 39
36 36 37 37 37 36 35 34 33 34 35 36 37 37 38 40 39 39 43 45 42 43 46 47 49 50 51 53 55 55 53 50 49 48 46 45 44 44 43 42 41 41 41 41 40 39 38 38 38 37 37 39 39 38 38 37 36 35 35 35 35 35 35 35 36 36 37 38 39 40 40 40 41 40 40 42 44 43 40 38 40 42 43 44 44 41 40 40
34 34 34 33 32 31 31 31 30 30 30 31 33 35 35 37 36 36 39 40 38 40 44 48 51 52 52 54 55 55 54 53 51 50 48 46 46 46 46 44 43 43 43 43 43 42 41 41 41 40 41 41 41 40 41 41 39 37 37 37 37 38 38 37 38 38 37 38 39 40 41 42 43 44 45 47 49 50 48 46 46 46 45 44 46 45 42 40
31 31 31 31 30 29 28 28 27 26 26 27 29 31 32 33 33 34 36 37 36 39 43 46 48 50 52 55 57 57 56 55 53 52 50 49 49 50 48 47 46 46 46 46 46 45 44 43 43 43 43 42 41 43 44 43 41 40 39 39 40 40 39 39 40 40 39 40 41 42 42 43 43 45 47 49 52 53 54 52 50 49 46 44 44 45 44 43
27 27 28 28 29 27 25 24 23 23 23 23 24 26 27 29 30 31 33 34 36 39 41 42 44 46 49 54 57 57 57 56 55 54 53 52 52 52 51 51 50 49 48 48 48 47 47 46 45 44 43 42 43 44 44 42 42 43 43 42 42 41 42 42 42 42 41 40 41 42 42 42 43 45 47 48 50 51 53 54 53 50 48 45 44 45 46 49
25 26 25 25 25 25 23 21 21 20 20 20 20 21 23 25 27 28 29 30 34 36 37 37 38 40 44 49 53 55 56 56 55 54 53 53 53 53 54 54 53 51 50 49 49 51 50 48 48 47 46 46 47 48 46 45 46 47 45 43 44 44 45 45 44 44 43 41 40 40 40 41 42 44 44 45 46 47 49 51 53 53 53 51 48 48 49 52
Wind_Direction
255 255 256 257 258 259 259 260 260 261 261 262 262 262 262 263 263 264 264 265 265 266 266 267 268 269 270 270 270 269 268 266 265 263 262 260 259 259 257 256 256 257 256 256 256 256 255 255 255 255 254 254 254 253 253 252 253 253 253 253 253 253 253 253 253 254 254 255 255 256 256 256 257 257 257 257 257 258 259 260 260 261 262 261 261 261 262 263
255 256 257 258 259 260 260 261 261 261 261 261 262 262 262 262 263 263 264 265 266 266 268 269 270 271 271 271 270 269 267 266 264 262 261 260 259 258 257 256 256 256 256 255 255 254 255 255 255 255 254 255 254 253 253 252 252 252 251 251 252 252 252 253 254 255 255 256 256 257 257 257 257 258 257 257 257 257 259 259 259 259 261 262 261 261 261 262
256 257 258 259 260 260 261 261 261 261 261 261 261 261 262 262 262 263 264 265 266 267 268 270 271 271 271 270 269 268 266 265 263 262 260 260 259 258 257 256 255 255 255 254 254 253 254 254 254 254 254 255 254 254 254 253 252 251 250 250 251 252 252 253 254 255 255 256 257 257 258 258 258 258 258 257 257 257 258 258 258 259 260 262 262 262 261 261
257 258 259 259 260 260 261 261 261 261 261 261 261 261 261 262 263 263 264 265 267 268 269 270 271 271 270 269 268 267 265 264 263 261 260 259 258 258 257 256 256 255 255 254 254 254 254 253 253 254 254 254 254 254 254 253 252 251 250 250 251 252 253 254 254 255 255 256 256 257 258 258 258 258 258 257 257 257 258 258 258 259 260 261 262 262 262 262
259 259 260 260 260 261 261 261 261 261 261 261 261 261 262 263 263 264 265 266 267 268 269 270 269 269 268 268 267 266 265 263 262 262 260 259 258 258 257 257 256 256 256 255 255 255 254 254 254 253 253 253 253 253 253 252 252 251 251 251 252 253 254 254 255 256 256 256 257 257 258 259 259 258 257 256 256 257 257 259 259 259 260 260 261 261 262 262
260 260 260 261 261 261 261 261 262 262 262 262 262 263 263 264 264 265 266 267 268 268 269 268 267 267 266 267 266 266 265 264 263 262 261 260 259 259 258 258 257 257 257 257 256 256 255 255 254 254 254 253 253 253 252 252 252 252 251 252 253 254 254 255 255 256 256 256 257 257 258 258 259 259 258 257 256 256 257 259 261 261 260 261 261 261 262 262
260 260 260 261 261 261 261 262 262 262 263 263 263 263 264 264 265 265 266 267 268 268 267 266 265 265 265 266 265 265 265 264 263 262 262 261 260 260 259 259 259 258 258 258 258 257 257 256 255 255 255 254 254 253 253 253 252 252 252 253 254 254 255 255 255 256 256 257 257 258 258 258 259 258 258 258 257 256 257 259 260 261 260 261 261 262 262 262
260 260 260 260 261 261 261 262 262 262 263 263 263 263 264 264 265 266 266 267 267 267 266 265 264 264 264 264 264 264 264 264 264 264 263 262 261 260 260 260 260 260 259 259 259 259 258 257 257 256 256 255 255 255 254 254 253 253 253 253 254 254 255 255 255 256 256 256 257 257 257 257 258 257 257 257 258 258 258 258 259 260 260 260 261 261 261 261
260 260 260 261 261 261 262 262 262 262 263 263 263 263 264 264 265 265 266 266 265 265 265 264 264 264 264 264 264 264 264 264 264 264 264 263 262 262 261 261 261 261 260 260 260 260 259 259 258 258 257 257 257 256 256 255 254 253 253 253 254 255 256 256 256 256 256 256 256 256 257 257 257 257 256 256 257 258 258 257 257 259 260 260 261 261 262 262
261 261 261 261 261 261 261 261 262 262 262 262 263 263 264 264 264 264 264 264 264 264 264 264 264 264 264 263 263 264 265 264 264 264 264 264 264 264 263 262 262 262 262 261 261 260 260 260 259 259 259 258 257 257 256 255 254 253 253 254 255 255 256 257 256 256 255 255 255 256 257 257 257 256 256 255 256 257 257 257 257 258 259 260 261 261 262 262
263 262 261 261 260 260 260 261 261 261 261 262 262 262 262 263 263 263 263 263 263 263 263 263 263 263 263 263 263 264 265 264 264 264 265 265 264 264 264 264 263 263 263 262 262 261 261 260 259 259 259 258 257 257 256 255 254 253 253 254 254 255 255 256 255 255 254 254 254 254 255 256 255 255 255 255 255 256 256 256 256 257 258 259 260 260 261 261
265 264 262 261 260 260 260 260 260 260 260 261 261 261 261 261 261 262 262 262 262 262 262 263 263 263 263 263 263 264 264 264 265 265 265 265 264 264 265 264 264 264 263 263 263 262 261 260 259 259 258 257 257 256 255 254 254 253 252 253 253 254 254 255 255 254 254 253 253 252 253 253 253 254 254 254 254 254 255 256 256 257 258 258 259 259 260 261
265 265 264 263 262 261 260 260 260 260 260 260 260 260 260 260 261 261 261 261 261 261 261 262 262 262 262 263 263 263 264 265 265 265 265 265 265 265 265 265 265 265 264 264 263 262 261 260 259 258 257 257 256 255 254 254 254 253 252 252 252 253 253 254 253 253 252 251 251 251 251 253 253 254 254 253 253 253 254 256 256 256 257 258 258 259 259 259
267 266 265 265 264 263 262 261 261 261 261 261 261 261 261 261 260 260 260 260 260 261 261 261 261 262 262 262 263 263 263 264 265 265 265 265 265 265 266 266 266 266 265 264 263 262 261 260 259 258 257 257 256 255 255 254 253 253 252 251 252 252 252 252 252 252 251 250 249 249 250 252 253 253 254 254 252 253 254 255 256 256 257 257 257 258 258 258
269 268 267 266 265 265 264 263 262 262 261 261 261 261 261 261 261 261 261 261 261 261 260 260 261 261 262 262 262 262 263 263 264 265 265 265 266 266 267 268 267 266 266 265 264 263 262 260 259 258 257 256 256 255 254 253 252 252 251 250 250 250 250 250 250 250 250 249 248 247 248 251 253 253 254 253 251 251 253 255 256 256 255 256 256 257 257 258
271 271 270 269 268 267 265 264 263 263 262 262 262 261 261 261 261 261 261 261 261 261 260 260 260 261 261 261 261 262 262 263 263 263 264 265 267 268 268 268 268 267 266 265 264 263 261 260 259 258 257 256 255 254 253 253 251 250 248 247 247 247 248 248 248 248 248 247 247 247 247 250 252 252 252 252 251 250 251 253 254 255 255 254 255 256 257 258
273 273 273 272 271 270 268 266 264 263 263 263 262 262 261 262 262 262 262 262 262 261 261 260 260 260 260 260 261 261 261 262 262 263 264 266 268 268 268 268 268 268 267 266 264 263 261 260 258 257 256 255 253 252 252 250 248 246 245 245 245 245 246 247 247 247 247 247 246 246 246 247 249 251 251 251 250 248 248 249 252 254 255 255 255 255 256 256
276 276 276 276 275 273 270 268 265 264 263 262 262 262 262 262 262 262 262 263 263 262 262 261 260 260 259 260 260 259 260 261 262 263 264 266 267 268 269 269 269 268 267 266 263 262 261 259 258 256 254 252 251 250 249 247 245 245 244 244 245 245 247 248 249 248 248 248 246 245 245 245 247 249 249 249 249 247 245 246 249 252 254 254 254 255 255 255
278 279 279 279 278 277 274 271 267 265 263 263 262 262 262 262 262 263 263 264 263 263 263 262 260 259 259 259 259 259 259 260 262 263 264 266 267 268 269 269 269 268 267 265 263 262 260 258 256 254 251 250 249 248 247 247 246 246 246 246 246 247 247 249 249 249 247 247 246 245 245 244 245 248 249 248 248 246 245 245 247 248 250 251 253 254 255 255
279 280 281 281 281 280 278 274 270 267 265 263 263 263 263 263 263 264 264 264 264 263 262 261 260 258 258 257 258 258 259 260 261 263 264 266 267 267 268 269 269 268 267 265 264 261 258 256 253 251 250 249 248 247 247 247 247 247 247 247 246 246 246 247 247 246 243 242 243 244 244 244 245 248 249 248 248 246 244 244 245 246 246 248 250 252 253 253
280 281 282 283 284 282 280 276 273 270 268 266 265 265 265 265 264 264 264 264 263 262 261 259 258 257 256 256 256 257 258 259 260 262 263 265 266 266 267 268 268 267 266 265 263 260 257 254 252 250 250 250 249 248 248 248 248 247 246 246 246 245 244 243 243 243 241 238 239 241 242 244 246 248 249 248 247 245 242 241 243 244 245 247 249 249 250 250
281 282 283 284 284 283 280 277 275 273 271 269 267 267 266 266 265 265 264 264 263 261 259 258 256 256 255 254 254 255 257 258 259 261 263 263 264 265 266 267 266 266 266 264 261 258 256 254 253 252 252 251 250 249 249 249 249 247 246 245 245 242 241 241 241 242 241 239 239 241 240 241 244 246 247 247 246 243 240 239 241 243 245 246 247 247 248 249
281 282 283 284 284 283 280 277 275 274 272 271 270 269 268 267 267 266 264 263 263 261 258 257 255 255 254 252 252 254 255 256 258 259 261 262 262 264 265 265 264 265 265 262 259 257 255 255 254 253 252 251 250 249 249 249 248 247 245 243 242 240 240 241 242 243 243 240 241 242 241 240 243 245 246 246 244 242 239 239 241 243 244 244 245 246 246 248
280 281 283 283 283 282 279 276 276 275 274 273 272 271 270 268 268 267 265 264 263 261 257 255 254 253 252 251 250 251 253 254 256 257 258 260 262 262 262 262 264 264 262 259 258 257 255 255 255 253 252 251 250 249 248 247 246 244 242 240 239 239 240 241 242 243 242 239 239 240 240 241 243 244 245 244 242 240 239 239 240 242 243 243 243 244 246 249
279 280 282 283 282 281 278 277 277 276 276 275 274 273 271 270 269 268 266 263 260 259 255 253 252 251 251 250 248 248 251 253 254 255 256 257 259 260 260 262 263 262 260 258 258 257 255 254 254 252 251 251 249 248 246 245 243 241 239 238 239 240 240 241 241 241 240 237 237 238 238 239 240 241 242 242 240 238 238 239 240 241 241 241 242 244 247 249
278 280 281 281 281 280 278 278 278 277 277 277 276 275 274 273 272 268 265 260 255 255 254 250 249 250 248 247 247 247 249 250 252 254 254 254 257 260 261 261 261 260 258 256 257 256 254 253 253 252 251 250 248 246 244 242 240 238 237 238 239 239 240 241 241 240 239 237 238 239 237 237 237 239 240 241 241 240 238 239 240 241 241 241 242 244 246 246
278 279 280 281 281 279 278 279 279 279 279 278 277 276 276 274 271 267 262 257 251 252 252 249 247 248 247 245 244 245 246 248 249 250 253 254 256 258 259 259 259 257 256 256 256 255 253 253 253 252 250 249 246 244 241 240 239 237 237 238 239 238 238 239 239 239 238 237 237 238 236 234 234 237 239 240 242 241 238 237 238 239 240 241 242 242 243 244
277 278 279 280 279 278 279 280 280 281 280 279 278 278 276 271 267 264 260 254 249 248 250 249 246 247 247 244 243 242 244 246 246 248 252 255 255 255 256 257 258 257 255 255 256 255 253 252 252 251 250 247 244 243 242 240 238 237 238 238 238 237 237 238 239 238 237 236 235 235 235 232 230 235 238 238 238 238 237 235 235 236 239 241 241 241 242 243
276 277 279 279 278 278 280 280 281 282 280 279 279 278 273 267 263 261 257 252 248 246 247 249 247 244 242 242 242 241 242 244 245 247 251 253 253 253 253 255 257 255 253 254 255 253 251 251 252 250 248 245 244 243 242 239 237 237 237 238 237 237 237 236 236 235 234 233 232 232 233 231 229 232 235 235 235 236 236 235 235 236 238 240 241 241 242 242
275 277 279 278 278 279 280 281 282 280 278 279 279 276 270 265 261 258 254 250 247 245 245 246 245 242 239 239 241 241 241 244 245 247 250 251 250 250 251 254 255 252 250 252 253 252 250 250 251 249 246 244 243 241 238 236 236 236 235 235 235 235 234 233 232 232 230 229 229 229 231 231 231 232 234 234 234 235 235 234 235 236 236 237 239 240 241 242
275 277 278 278 278 280 280 281 280 278 277 278 277 274 270 265 260 255 250 247 245 243 243 243 243 243 241 239 241 241 242 243 244 245 249 249 248 248 249 252 253 251 249 250 251 250 249 249 249 248 246 245 242 238 235 233 234 233 232 233 232 232 233 231 230 230 227 225 224 226 230 230 230 233 235 234 234 235 233 232 235 235 234 235 236 237 239 241
275 277 277 277 279 280 280 280 278 275 275 276 275 273 269 265 258 250 245 244 242 241 240 240 241 241 241 239 240 240 240 242 243 244 247 248 246 246 247 249 251 250 248 249 249 249 248 248 249 248 247 245 242 238 235 233 232 230 230 231 231 232 232 230 229 228 225 224 224 225 227 227 228 230 232 232 233 233 232 232 234 235 234 234 234 235 236 239
275 277 277 277 278 279 280 278 274 272 274 274 273 271 268 262 255 248 245 244 242 239 238 238 238 238 239 239 239 240 240 241 242 243 246 247 245 244 245 246 248 248 247 247 247 246 247 247 247 246 245 241 237 236 234 232 231 230 229 229 229 228 228 227 225 223 223 225 227 228 228 228 229 230 230 231 232 232 231 230 232 233 234 234 235 236 237 239
276 276 276 277 277 278 278 275 271 270 271 272 272 270 264 257 251 249 247 245 243 240 238 239 238 238 239 241 241 241 241 240 240 240 243 245 244 242 242 244 246 247 246 246 246 245 245 246 246 245 244 240 235 233 232 230 229 229 228 228 228 227 226 225 224 221 221 224 227 228 228 229 231 231 230 229 230 230 229 228 228 228 229 232 235 237 237 237
275 275 275 276 277 277 275 271 269 269 269 269 269 267 262 257 253 252 249 247 246 244 241 240 240 239 240 241 241 242 241 240 239 237 239 243 243 241 240 242 244 246 246 245 244 243 244 246 246 246 246 243 238 235 233 230 229 229 228 228 229 228 227 227 225 222 222 224 226 227 228 228 228 228 228 227 228 229 227 227 228 227 227 229 232 233 233 234
275 275 275 276 276 275 271 267 268 268 267 267 266 263 262 261 258 254 251 250 250 247 243 239 237 237 238 238 239 240 240 239 237 235 236 240 242 240 239 240 243 246 245 243 242 242 244 246 247 247 247 245 242 239 235 231 228 226 225 224 225 225 225 226 226 224 222 223 226 227 226 224 223 222 224 225 224 224 224 223 224 225 227 228 226 227 229 231
274 274 275 276 274 271 267 266 267 267 266 265 264 263 262 261 259 256 254 254 252 249 244 239 236 235 235 236 237 237 238 239 238 236 234 237 241 241 240 239 241 244 244 244 244 244 244 246 247 247 247 246 244 241 237 231 227 224 223 223 223 222 222 224 225 225 224 223 225 226 224 222 221 219 221 225 224 221 221 221 222 222 224 226 224 225 229 230
274 275 276 274 271 266 265 265 265 265 265 264 263 262 261 260 258 257 255 253 252 249 246 243 239 235 234 235 236 236 237 239 240 239 236 237 239 241 240 239 240 242 243 242 241 241 242 244 246 246 247 246 244 239 235 230 226 224 223 224 224 223 222 222 222 223 224 224 224 225 224 223 222 215 213 221 223 221 220 221 222 221 221 223 225 228 231 230
274 275 273 269 266 265 265 265 265 265 265 263 262 260 259 259 258 256 255 254 252 249 246 245 243 239 236 236 237 237 237 239 241 240 239 237 238 240 241 240 240 241 241 240 238 238 238 239 240 241 243 244 243 239 235 231 228 225 225 224 223 222 223 223 223 222 222 223 224 224 223 222 220 214 212 217 221 221 220 222 224 223 222 223 225 228 229 227
273 271 268 266 265 265 265 265 266 266 265 263 262 260 259 258 256 255 254 253 251 249 247 246 245 242 239 238 238 238 237 238 239 240 240 238 237 239 240 240 240 240 240 239 238 237 238 238 237 236 238 241 242 241 237 233 231 229 228 227 225 223 222 223 224 223 222 223 224 224 222 221 218 214 214 217 222 226 228 227 229 229 227 225 225 225 225 225
269 266 265 266 267 267 267 267 266 265 264 263 261 260 258 257 255 253 251 250 248 245 243 242 242 240 239 239 239 240 239 238 238 238 239 239 238 238 239 239 239 239 240 239 237 236 237 239 240 238 236 237 240 242 239 234 231 230 229 228 228 226 225 225 226 226 225 226 226 224 222 222 219 216 215 213 215 228 239 239 234 232 229 225 223 221 221 222
266 265 265 266 267 268 269 269 268 267 265 263 261 259 257 256 255 253 251 250 248 245 243 243 242 240 239 239 240 241 241 239 238 237 238 238 238 237 237 239 239 239 239 239 237 235 235 236 239 238 237 237 238 241 240 235 232 230 228 226 226 225 224 225 226 226 226 226 226 224 222 222 221 218 215 210 204 212 235 243 239 234 230 226 222 220 219 221
266 267 268 268 269 269 269 269 268 268 266 265 262 259 257 256 255 254 252 250 249 247 246 246 245 242 240 239 240 241 240 239 238 236 236 236 237 236 236 238 239 239 239 239 237 236 234 234 235 236 236 237 238 239 240 238 233 230 227 225 225 224 221 221 223 224 224 224 224 224 223 222 222 218 214 209 200 197 220 241 246 242 234 230 226 224 222 223
269 270 270 271 272 272 271 271 270 268 267 266 263 261 258 255 254 253 252 250 248 246 245 244 243 241 240 238 238 239 239 239 238 236 236 237 237 235 234 235 237 238 238 238 236 235 234 235 235 235 234 235 237 238 239 239 234 230 227 224 223 224 223 222 222 223 224 224 224 224 224 223 222 218 211 202 192 188 207 234 250 251 241 233 228 226 224 223
272 273 273 273 274 274 274 274 273 271 268 266 264 262 259 255 253 252 250 248 247 246 244 242 240 238 237 236 236 236 236 236 237 236 236 238 238 237 234 233 234 235 236 236 235 233 234 235 236 236 234 234 235 235 236 237 234 230 227 225 221 221 222 223 224 223 223 223 224 226 226 224 222 218 210 200 192 189 200 221 239 247 243 234 227 223 221 220
273 275 276 277 277 277 277 276 275 273 271 268 264 262 259 256 253 251 249 247 246 245 244 242 239 237 235 235 236 236 234 233 233 232 231 232 235 236 235 233 233 233 234 235 234 233 233 234 236 237 236 236 236 236 235 236 235 230 226 225 224 221 220 221 223 223 222 222 223 225 226 225 224 219 210 204 198 195 200 214 229 238 240 233 225 221 218 218
275 276 279 280 280 280 279 278 275 273 271 269 266 262 259 256 253 250 250 248 245 243 243 241 238 236 235 235 236 237 236 233 232 230 228 227 228 230 231 232 233 233 233 234 233 233 232 232 233 236 238 238 236 235 233 233 234 232 227 225 224 224 224 224 223 222 221 221 222 224 225 224 223 218 212 207 202 200 205 214 222 231 234 230 226 223 218 216
278 280 281 281 282 282 281 279 276 272 270 268 265 262 259 256 253 250 249 248 244 241 240 238 236 235 235 235 237 238 238 236 234 232 230 227 226 226 226 227 231 233 234 234 233 233 232 232 232 231 234 235 235 234 232 231 231 232 231 228 224 223 224 226 226 225 223 221 221 222 223 223 221 218 214 210 206 206 211 214 218 226 230 231 232 230 222 217
283 284 284 285 285 285 285 283 280 276 271 267 264 261 258 256 253 249 247 247 243 238 236 235 234 233 232 233 235 236 236 236 235 234 232 228 227 226 225 224 226 230 232 233 233 233 232 233 232 230 229 231 233 234 234 233 231 231 233 233 230 227 226 226 227 227 226 225 224 222 222 222 222 220 217 214 212 211 213 215 219 225 229 231 232 231 225 216
286 288 289 291 291 290 289 287 284 280 274 268 264 262 259 255 252 247 245 243 240 236 234 233 232 231 230 230 232 233 233 233 232 232 231 230 227 226 225 223 223 225 228 230 231 232 232 233 235 234 232 231 232 233 235 235 234 232 232 233 233 232 231 231 230 230 229 229 229 227 224 222 222 222 221 219 217 217 218 220 223 227 230 229 228 228 225 218
289 291 293 295 296 296 294 292 289 285 279 273 266 262 258 255 251 246 243 241 239 237 235 233 231 230 229 230 231 231 232 232 231 229 229 228 227 226 225 223 222 222 224 227 229 230 230 231 233 235 235 232 231 232 234 235 235 232 230 231 232 233 233 233 233 233 232 230 231 232 231 228 225 224 225 225 224 224 224 225 226 227 229 228 227 227 225 222
293 295 297 299 301 302 302 300 297 292 285 279 271 263 258 255 252 248 243 240 239 239 238 237 234 231 229 230 231 232 232 232 232 231 229 227 227 227 226 224 223 221 222 224 227 229 229 228 228 229 230 230 230 231 230 230 233 232 229 230 232 234 235 235 235 236 235 232 230 230 231 233 232 231 230 231 231 230 230 230 229 229 229 231 232 230 226 225
Height
10666 10667 10668 10669 10669 10670 10671 10671 10672 10673 10673 10674 10675 10676 10676 10677 10678 10679 10680 10681 10681 10682 10683 10684 10685 10686 10686 10686 10686 10686 10685 10686 10686 10687 10688 10689 10691 10692 10695 10696 10697 10698 10701 10703 10703 10704 10706 10709 10711 10714 10716 10716 10719 10722 10726 10729 10733 10741 10745 10745 10742 10735 10727 10719 10720 10730 10737 10741 10746 10749 10750 10753 10757 10761 10769 10777 10777 10774 10770 10768 10766 10766 10770 10777 10782 10787 10789 10788
10658 10659 10660 10661 10662 10663 10663 10664 10665 10665 10666 10667 10667 10668 10669 10670 10671 10671 10672 10673 10674 10675 10675 10676 10677 10678 10678 10678 10677 10677 10677 10677 10677 10679 10680 10681 10683 10684 10686 10688 10689 10690 10693 10695 10696 10697 10699 10702 10704 10706 10708 10709 10711 10715 10719 10722 10727 10734 10736 10738 10732 10721 10715 10712 10718 10727 10732 10737 10740 10743 10743 10747 10752 10753 10762 10770 10769 10767 10761 10757 10760 10762 10765 10767 10773 10780 10781 10783
10650 10651 10652 10653 10654 10655 10656 10657 10658 10658 10659 10659 10660 10661 10662 10662 10663 10664 10665 10665 10666 10667 10668 10669 10670 10670 10670 10670 10669 10669 10669 10669 10669 10671 10672 10673 10676 10677 10679 10681 10682 10683 10685 10687 10688 10690 10692 10695 10697 10699 10701 10702 10704 10708 10712 10714 10720 10725 10728 10730 10719 10708 10708 10710 10714 10721 10729 10734 10735 10735 10735 10740 10745 10745 10755 10760 10757 10756 10751 10749 10755 10759 10760 10760 10765 10771 10772 10777
10643 10644 10644 10645 10646 10647 10648 10649 10650 10651 10652 10652 10653 10654 10654 10655 10656 10657 10657 10658 10659 10660 10661 10661 10662 10662 10663 10662 10662 10662 10662 10662 10663 10664 10665 10667 10669 10670 10672 10673 10675 10676 10678 10679 10681 10684 10686 10688 10690 10692 10694 10694 10697 10702 10704 10707 10712 10717 10722 10720 10706 10702 10705 10704 10708 10717 10724 10728 10728 10728 10730 10733 10736 10739 10745 10748 10747 10746 10742 10743 10750 10754 10755 10755 10757 10761 10763 10768
10635 10636 10637 10638 10638 10639 10640 10641 10642 10643 10644 10645 10646 10646 10647 10648 10649 10650 10650 10651 10652 10653 10654 10654 10655 10655 10656 10655 10655 10655 10655 10655 10656 10657 10658 10660 10662 10664 10665 10666 10668 10669 10671 10672 10674 10677 10679 10681 10683 10685 10686 10687 10691 10695 10696 10699 10705 10711 10714 10708 10698 10698 10698 10697 10705 10713 10717 10721 10723 10723 10725 10726 10728 10731 10735 10738 10739 10737 10735 10739 10745 10748 10748 10748 10749 10753 10757 10760
10627 10628 10629 10630 10631 10631 10632 10633 10634 10635 10636 10637 10638 10639 10640 10641 10641 10642 10643 10644 10645 10646 10646 10647 10648 10649 10649 10648 10648 10648 10648 10648 10650 10650 10652 10654 10656 10657 10658 10660 10661 10662 10663 10665 10667 10669 10672 10674 10676 10677 10678 10681 10684 10686 10688 10692 10699 10704 10706 10699 10692 10692 10689 10692 10703 10707 10709 10715 10717 10718 10719 10720 10721 10722 10725 10729 10730 10729 10733 10737 10740 10740 10740 10740 10742 10747 10751 10753
10620 10620 10621 10622 10623 10623 10624 10625 10626 10627 10628 10629 10630 10631 10632 10633 10634 10635 10636 10637 10638 10638 10639 10640 10640 10642 10642 10642 10641 10642 10642 10643 10643 10643 10645 10647 10649 10650 10651 10653 10654 10655 10656 10658 10660 10662 10665 10666 10667 10669 10671 10674 10676 10678 10680 10686 10693 10696 10697 10691 10684 10685 10682 10687 10698 10700 10704 10708 10710 10712 10712 10714 10714 10713 10717 10719 10718 10724 10732 10735 10733 10730 10731 10733 10736 10740 10744 10746
10612 10613 10613 10614 10615 10615 10616 10617 10618 10619 10620 10621 10622 10623 10624 10625 10626 10627 10629 10629 10630 10631 10632 10633 10633 10635 10635 10635 10634 10634 10636 10637 10637 10637 10638 10640 10642 10643 10644 10645 10646 10648 10649 10650 10652 10654 10657 10657 10659 10662 10664 10665 10669 10671 10673 10680 10687 10687 10687 10681 10677 10677 10675 10681 10691 10694 10698 10702 10704 10704 10704 10707 10706 10705 10709 10710 10710 10718 10727 10729 10725 10721 10723 10727 10729 10733 10736 10739
10604 10605 10606 10606 10607 10608 10608 10609 10610 10611 10612 10613 10614 10615 10616 10617 10618 10620 10621 10622 10623 10624 10624 10625 10626 10627 10628 10628 10628 10628 10629 10631 10631 10630 10631 10632 10634 10636 10637 10638 10639 10640 10642 10643 10645 10646 10648 10649 10651 10654 10655 10658 10662 10663 10665 10672 10677 10676 10675 10672 10671 10671 10669 10675 10685 10688 10691 10695 10696 10697 10698 10699 10697 10696 10701 10703 10705 10713 10719 10719 10717 10715 10717 10721 10723 10726 10728 10731
10597 10597 10598 10599 10600 10600 10601 10601 10602 10603 10604 10605 10606 10607 10608 10609 10611 10612 10614 10615 10616 10616 10617 10618 10619 10620 10621 10621 10621 10622 10623 10624 10624 10623 10624 10625 10627 10628 10629 10630 10631 10633 10634 10635 10637 10638 10640 10641 10644 10647 10648 10650 10653 10654 10657 10662 10665 10666 10666 10666 10666 10665 10663 10668 10677 10681 10683 10688 10690 10690 10692 10689 10686 10688 10692 10696 10701 10707 10710 10709 10710 10710 10712 10714 10717 10719 10721 10723
10590 10591 10591 10592 10592 10593 10593 10594 10594 10595 10596 10597 10598 10599 10600 10602 10603 10605 10607 10608 10608 10609 10610 10612 10612 10613 10613 10613 10615 10617 10616 10615 10616 10617 10617 10618 10619 10620 10621 10623 10624 10625 10627 10628 10629 10630 10632 10634 10636 10639 10640 10641 10643 10645 10649 10652 10654 10658 10659 10659 10659 10657 10657 10661 10668 10671 10674 10680 10681 10682 10684 10677 10675 10680 10682 10688 10696 10701 10700 10699 10705 10705 10705 10708 10710 10712 10713 10715
10584 10584 10584 10585 10585 10586 10586 10587 10587 10587 10588 10589 10590 10592 10593 10594 10596 10598 10600 10601 10601 10602 10603 10605 10605 10605 10605 10606 10609 10611 10608 10608 10610 10611 10610 10611 10612 10613 10614 10615 10617 10618 10620 10621 10621 10623 10624 10626 10629 10631 10631 10632 10635 10637 10640 10642 10644 10649 10651 10651 10650 10649 10651 10654 10658 10661 10666 10672 10671 10674 10675 10665 10667 10673 10673 10682 10691 10694 10691 10692 10699 10699 10698 10702 10704 10706 10706 10708
10577 10578 10578 10578 10579 10579 10580 10580 10580 10580 10581 10582 10583 10584 10585 10587 10589 10591 10593 10594 10594 10595 10597 10598 10598 10598 10598 10599 10603 10603 10602 10602 10602 10603 10603 10603 10605 10607 10608 10608 10610 10611 10613 10614 10614 10615 10616 10618 10621 10622 10623 10625 10626 10628 10631 10633 10637 10640 10643 10644 10641 10642 10646 10646 10648 10652 10657 10661 10662 10667 10665 10655 10661 10666 10665 10675 10685 10687 10686 10687 10691 10692 10693 10695 10696 10698 10699 10701
10571 10571 10572 10572 10572 10573 10573 10573 10573 10574 10574 10574 10576 10576 10578 10579 10581 10583 10585 10587 10587 10588 10590 10591 10590 10591 10590 10592 10596 10596 10596 10597 10595 10596 10596 10595 10598 10601 10601 10602 10604 10604 10604 10606 10607 10607 10609 10610 10613 10614 10615 10617 10618 10621 10623 10626 10630 10631 10635 10636 10633 10636 10639 10636 10639 10644 10647 10650 10653 10659 10656 10649 10653 10657 10658 10668 10678 10681 10682 10682 10683 10684 10687 10688 10688 10690 10691 10696
10565 10566 10566 10566 10566 10566 10566 10566 10566 10567 10567 10567 10568 10569 10570 10572 10574 10576 10578 10579 10580 10581 10583 10583 10583 10584 10583 10585 10589 10589 10589 10591 10590 10590 10589 10587 10591 10595 10596 10595 10596 10597 10597 10598 10599 10600 10601 10603 10605 10606 10608 10610 10611 10613 10615 10618 10622 10623 10626 10627 10625 10628 10629 10627 10632 10636 10637 10641 10645 10651 10650 10645 10647 10649 10650 10659 10670 10677 10677 10677 10676 10676 10679 10680 10681 10682 10685 10691
10559 10559 10559 10559 10559 10559 10559 10559 10559 10559 10559 10560 10560 10562 10563 10564 10566 10569 10570 10572 10573 10574 10576 10576 10576 10577 10576 10577 10581 10583 10582 10583 10584 10584 10582 10582 10585 10588 10590 10588 10588 10589 10589 10590 10591 10592 10594 10595 10597 10599 10600 10602 10604 10605 10607 10612 10614 10614 10616 10617 10616 10619 10619 10619 10624 10627 10627 10632 10639 10644 10644 10642 10640 10640 10644 10651 10663 10671 10673 10672 10669 10668 10670 10673 10675 10677 10681 10687
10553 10553 10553 10553 10552 10552 10552 10551 10551 10552 10552 10552 10553 10554 10555 10557 10559 10561 10562 10564 10565 10566 10568 10568 10568 10569 10568 10569 10574 10576 10575 10576 10577 10577 10576 10578 10579 10580 10582 10581 10581 10582 10582 10583 10584 10585 10586 10588 10590 10591 10593 10595 10596 10598 10601 10604 10603 10603 10606 10607 10608 10612 10612 10613 10616 10618 10621 10627 10634 10636 10637 10639 10634 10632 10638 10645 10654 10665 10669 10668 10664 10661 10663 10666 10669 10672 10677 10683
10546 10546 10546 10545 10545 10544 10543 10543 10544 10544 10544 10544 10545 10546 10548 10550 10552 10554 10555 10556 10557 10557 10559 10561 10561 10561 10561 10562 10567 10568 10568 10568 10569 10570 10570 10572 10573 10573 10574 10575 10575 10575 10575 10576 10576 10578 10580 10581 10583 10584 10585 10586 10588 10591 10594 10593 10592 10595 10599 10600 10603 10607 10609 10610 10610 10613 10617 10622 10627 10629 10631 10633 10628 10625 10633 10639 10647 10658 10664 10663 10659 10657 10658 10659 10662 10667 10673 10677
10539 10539 10539 10538 10537 10536 10535 10535 10535 10536 10536 10537 10537 10538 10540 10543 10545 10547 10548 10549 10548 10549 10552 10554 10553 10552 10554 10555 10559 10560 10561 10562 10562 10563 10564 10565 10567 10567 10567 10567 10568 10568 10568 10568 10570 10573 10574 10574 10576 10576 10576 10578 10581 10585 10586 10584 10586 10591 10594 10596 10600 10604 10606 10605 10604 10606 10611 10615 10620 10622 10623 10626 10622 10620 10627 10634 10641 10651 10658 10659 10655 10652 10653 10654 10657 10663 10667 10668
10532 10532 10531 10530 10529 10528 10527 10526 10527 10528 10528 10529 10530 10531 10533 10536 10538 10540 10541 10541 10540 10541 10544 10545 10544 10544 10546 10549 10551 10552 10554 10555 10555 10556 10558 10559 10561 10561 10561 10561 10561 10561 10561 10562 10564 10567 10567 10568 10568 10567 10569 10573 10576 10579 10579 10578 10582 10586 10588 10592 10595 10598 10599 10596 10594 10596 10602 10608 10613 10615 10617 10620 10619 10617 10622 10630 10636 10645 10653 10653 10648 10647 10648 10651 10655 10659 10660 10659
10525 10525 10524 10523 10522 10521 10519 10519 10519 10520 10520 10521 10523 10524 10526 10528 10530 10532 10534 10532 10530 10533 10535 10536 10536 10534 10537 10542 10543 10545 10547 10548 10548 10549 10552 10554 10554 10555 10555 10555 10555 10554 10555 10557 10559 10560 10560 10560 10560 10562 10565 10568 10571 10573 10573 10574 10576 10580 10583 10586 10588 10591 10590 10585 10584 10586 10593 10603 10607 10608 10612 10615 10615 10614 10617 10623 10630 10639 10646 10644 10640 10640 10644 10648 10652 10654 10653 10651
10519 10518 10517 10516 10515 10513 10512 10512 10512 10512 10513 10514 10516 10517 10517 10519 10521 10524 10527 10523 10520 10524 10527 10527 10528 10526 10530 10535 10535 10539 10541 10540 10541 10543 10546 10547 10547 10549 10550 10549 10548 10549 10551 10552 10552 10553 10553 10553 10555 10558 10561 10563 10565 10567 10567 10568 10570 10574 10577 10580 10581 10580 10577 10574 10577 10582 10590 10602 10603 10603 10608 10610 10609 10609 10612 10617 10624 10632 10637 10636 10633 10635 10641 10645 10646 10647 10646 10645
10511 10511 10510 10509 10508 10506 10505 10505 10505 10505 10506 10507 10508 10508 10509 10510 10512 10515 10517 10515 10512 10515 10518 10519 10520 10519 10520 10526 10530 10533 10533 10532 10535 10538 10540 10540 10541 10545 10544 10542 10543 10545 10546 10545 10546 10547 10548 10549 10551 10554 10556 10557 10559 10560 10561 10562 10565 10568 10571 10573 10571 10568 10568 10570 10575 10580 10589 10599 10599 10599 10603 10604 10604 10605 10608 10612 10618 10624 10629 10629 10629 10632 10637 10639 10640 10640 10639 10642
10504 10504 10503 10502 10501 10500 10498 10499 10499 10499 10499 10500 10500 10500 10501 10502 10504 10506 10508 10509 10506 10504 10509 10512 10513 10510 10511 10519 10526 10526 10525 10527 10530 10532 10534 10533 10535 10539 10538 10536 10539 10540 10539 10540 10541 10541 10543 10545 10546 10548 10550 10551 10552 10553 10555 10556 10558 10561 10563 10563 10560 10560 10564 10567 10572 10578 10585 10593 10593 10592 10598 10600 10601 10601 10603 10606 10610 10617 10622 10623 10625 10628 10631 10633 10634 10634 10636 10641
10497 10497 10496 10495 10494 10492 10492 10492 10493 10492 10492 10492 10492 10493 10493 10494 10496 10498 10498 10502 10499 10493 10499 10506 10503 10501 10506 10513 10517 10518 10519 10522 10523 10526 10528 10527 10529 10532 10532 10532 10534 10534 10534 10536 10536 10536 10539 10540 10540 10542 10544 10545 10546 10547 10549 10550 10552 10555 10555 10553 10552 10557 10561 10563 10569 10574 10580 10586 10586 10587 10592 10595 10596 10596 10595 10598 10603 10611 10616 10618 10621 10624 10626 10627 10627 10630 10635 10640
10489 10490 10490 10489 10487 10486 10486 10486 10486 10486 10484 10484 10485 10485 10486 10486 10488 10490 10490 10493 10491 10485 10491 10498 10495 10494 10500 10506 10508 10511 10514 10515 10517 10520 10519 10520 10525 10527 10526 10527 10528 10528 10529 10531 10531 10531 10534 10535 10535 10537 10538 10539 10540 10541 10542 10544 10546 10548 10547 10546 10548 10554 10557 10559 10565 10570 10575 10580 10582 10584 10587 10589 10591 10589 10588 10592 10598 10606 10612 10614 10617 10619 10620 10621 10625 10630 10634 10636
10482 10483 10483 10481 10479 10480 10480 10479 10479 10479 10478 10477 10478 10478 10479 10480 10479 10480 10482 10484 10483 10480 10483 10488 10488 10489 10494 10499 10501 10503 10506 10508 10512 10513 10511 10516 10521 10522 10521 10521 10522 10524 10526 10527 10525 10525 10529 10530 10530 10531 10532 10534 10534 10534 10535 10538 10541 10541 10540 10542 10545 10550 10552 10556 10561 10566 10571 10576 10579 10581 10581 10583 10585 10582 10583 10589 10594 10600 10607 10611 10613 10614 10615 10618 10623 10628 10629 10630
10475 10476 10477 10475 10472 10473 10474 10473 10473 10473 10471 10470 10471 10472 10473 10473 10471 10473 10475 10476 10475 10475 10475 10478 10482 10485 10489 10492 10494 10496 10500 10502 10505 10508 10507 10511 10515 10516 10515 10515 10517 10520 10522 10522 10519 10521 10525 10525 10524 10526 10527 10528 10527 10528 10531 10535 10535 10534 10536 10539 10542 10545 10549 10553 10558 10562 10568 10572 10575 10577 10576 10578 10578 10577 10580 10586 10590 10594 10601 10607 10608 10609 10611 10615 10620 10622 10623 10625
10468 10469 10470 10468 10466 10467 10468 10466 10466 10466 10465 10464 10464 10466 10466 10465 10464 10466 10468 10468 10468 10470 10470 10470 10475 10479 10482 10484 10485 10489 10493 10495 10500 10504 10503 10505 10509 10510 10510 10511 10513 10516 10518 10516 10514 10517 10520 10520 10520 10522 10522 10522 10522 10525 10528 10529 10529 10530 10533 10536 10538 10541 10545 10549 10553 10558 10563 10567 10570 10572 10571 10571 10573 10573 10576 10581 10585 10590 10597 10602 10603 10605 10610 10613 10615 10617 10618 10619
10462 10462 10463 10462 10460 10460 10461 10460 10461 10460 10459 10458 10459 10459 10459 10458 10459 10461 10461 10460 10461 10463 10463 10463 10467 10471 10475 10477 10478 10483 10488 10490 10496 10499 10497 10499 10503 10504 10505 10507 10509 10511 10512 10511 10510 10512 10515 10516 10516 10516 10516 10517 10519 10522 10523 10523 10524 10527 10530 10531 10534 10537 10540 10545 10549 10553 10559 10562 10564 10565 10564 10567 10570 10569 10572 10578 10582 10586 10593 10597 10597 10603 10608 10609 10610 10611 10612 10613
10455 10456 10456 10456 10454 10454 10454 10454 10455 10455 10453 10453 10453 10453 10452 10452 10454 10455 10453 10452 10453 10456 10456 10457 10460 10465 10470 10473 10474 10478 10482 10485 10490 10493 10491 10493 10498 10498 10500 10503 10504 10506 10507 10506 10506 10508 10511 10512 10511 10511 10512 10513 10515 10517 10517 10518 10520 10524 10525 10526 10530 10533 10536 10542 10546 10550 10554 10556 10557 10558 10559 10564 10565 10565 10570 10576 10578 10583 10589 10591 10593 10599 10603 10603 10604 10605 10607 10608
10449 10449 10449 10450 10449 10448 10448 10448 10449 10450 10448 10448 10448 10447 10446 10447 10449 10447 10444 10444 10446 10448 10449 10451 10456 10460 10464 10467 10469 10473 10477 10480 10485 10487 10485 10487 10492 10494 10495 10498 10499 10501 10502 10501 10503 10505 10507 10507 10506 10507 10509 10510 10512 10512 10512 10514 10516 10519 10521 10523 10527 10530 10534 10539 10542 10546 10549 10549 10550 10552 10555 10558 10559 10563 10569 10573 10575 10580 10585 10587 10590 10594 10596 10597 10598 10600 10602 10604
10443 10443 10443 10443 10443 10442 10442 10442 10444 10444 10444 10443 10442 10441 10442 10442 10441 10439 10437 10438 10440 10441 10443 10446 10451 10455 10458 10461 10464 10468 10473 10476 10480 10481 10480 10482 10486 10489 10490 10492 10494 10495 10496 10497 10500 10502 10503 10502 10502 10504 10504 10506 10507 10506 10507 10510 10513 10515 10517 10519 10522 10526 10530 10534 10537 10541 10543 10543 10545 10548 10551 10553 10556 10562 10567 10569 10572 10577 10581 10584 10586 10589 10590 10591 10593 10596 10599 10601
10437 10437 10436 10436 10437 10436 10436 10437 10438 10439 10439 10438 10437 10437 10436 10435 10433 10433 10433 10433 10433 10436 10440 10444 10449 10453 10455 10458 10461 10465 10468 10471 10474 10477 10476 10476 10480 10484 10485 10487 10489 10490 10491 10494 10497 10498 10498 10497 10499 10500 10500 10502 10501 10501 10503 10507 10509 10512 10514 10516 10518 10522 10526 10529 10532 10536 10537 10539 10541 10544 10547 10550 10556 10562 10564 10566 10569 10573 10577 10580 10582 10584 10585 10587 10589 10592 10594 10596
10431 10430 10430 10430 10431 10431 10431 10431 10432 10434 10434 10433 10432 10431 10430 10429 10429 10429 10429 10428 10429 10434 10439 10444 10447 10449 10451 10454 10457 10459 10462 10465 10468 10471 10472 10471 10473 10477 10480 10482 10485 10486 10488 10491 10492 10493 10494 10494 10495 10496 10497 10498 10497 10498 10501 10504 10506 10508 10511 10513 10516 10518 10522 10524 10528 10531 10534 10536 10537 10540 10544 10549 10554 10559 10561 10563 10566 10569 10573 10575 10577 10579 10581 10583 10586 10587 10588 10589
10424 10423 10423 10424 10425 10425 10425 10426 10427 10428 10428 10428 10427 10425 10424 10425 10425 10425 10425 10424 10427 10432 10436 10440 10441 10443 10445 10447 10450 10452 10455 10458 10461 10465 10467 10467 10467 10472 10475 10478 10480 10482 10484 10487 10488 10490 10490 10490 10492 10494 10494 10495 10494 10496 10498 10501 10503 10504 10507 10509 10510 10513 10517 10519 10523 10527 10530 10532 10534 10537 10543 10546 10550 10554 10557 10560 10562 10565 10568 10570 10573 10575 10577 10579 10581 10581 10582 10584
10418 10417 10417 10418 10418 10419 10419 10420 10421 10422 10422 10422 10422 10421 10420 10420 10421 10421 10421 10421 10424 10428 10431 10433 10434 10436 10439 10441 10443 10446 10448 10451 10454 10459 10462 10463 10464 10468 10471 10474 10476 10477 10481 10483 10485 10487 10487 10487 10489 10491 10491 10491 10492 10493 10495 10497 10498 10500 10501 10503 10505 10509 10513 10516 10520 10523 10526 10529 10531 10534 10539 10542 10546 10551 10554 10557 10559 10561 10563 10566 10569 10571 10573 10575 10576 10576 10577 10580
10412 10411 10411 10411 10411 10412 10414 10415 10416 10416 10416 10416 10416 10416 10415 10415 10416 10417 10416 10417 10420 10423 10426 10427 10428 10431 10434 10436 10438 10440 10443 10446 10449 10454 10458 10460 10462 10464 10466 10469 10471 10474 10477 10480 10481 10482 10483 10484 10486 10487 10487 10488 10489 10489 10490 10492 10494 10495 10497 10499 10503 10507 10510 10513 10516 10519 10522 10525 10527 10531 10535 10539 10545 10550 10553 10554 10555 10557 10559 10562 10564 10567 10569 10571 10572 10573 10575 10578
10405 10405 10405 10405 10405 10407 10408 10409 10410 10410 10410 10410 10410 10410 10410 10410 10411 10411 10411 10413 10416 10419 10421 10421 10423 10427 10430 10432 10433 10436 10439 10442 10446 10450 10453 10457 10459 10460 10461 10464 10467 10470 10474 10475 10476 10477 10478 10480 10481 10483 10483 10484 10484 10484 10486 10488 10490 10492 10494 10497 10501 10504 10507 10510 10512 10515 10518 10521 10523 10527 10532 10537 10542 10547 10549 10550 10551 10554 10557 10559 10561 10564 10566 10568 10570 10571 10573 10576
10399 10399 10398 10398 10400 10401 10402 10403 10404 10404 10404 10404 10404 10404 10404 10405 10405 10405 10406 10408 10411 10414 10415 10415 10417 10422 10425 10427 10428 10430 10434 10438 10442 10445 10448 10452 10455 10456 10457 10460 10463 10466 10469 10471 10473 10474 10474 10475 10477 10478 10479 10479 10479 10480 10483 10486 10488 10490 10492 10496 10499 10502 10505 10507 10509 10512 10515 10517 10520 10525 10529 10533 10538 10542 10545 10548 10551 10555 10558 10559 10560 10562 10564 10566 10567 10568 10570 10572
10393 10394 10393 10393 10394 10395 10396 10397 10397 10397 10397 10397 10398 10398 10398 10398 10397 10398 10400 10401 10404 10406 10407 10407 10411 10416 10420 10422 10423 10425 10429 10434 10437 10440 10442 10446 10449 10451 10453 10455 10458 10461 10464 10467 10469 10470 10471 10472 10473 10474 10474 10475 10475 10476 10480 10484 10485 10487 10491 10495 10498 10501 10504 10506 10508 10510 10513 10515 10518 10523 10526 10530 10534 10538 10542 10547 10553 10558 10561 10560 10559 10560 10561 10562 10563 10564 10566 10569
10388 10389 10388 10388 10389 10389 10389 10389 10390 10390 10389 10390 10391 10391 10391 10391 10390 10391 10393 10395 10397 10399 10400 10401 10406 10411 10414 10417 10420 10421 10424 10429 10433 10435 10437 10440 10442 10445 10448 10451 10453 10456 10460 10463 10465 10466 10467 10468 10468 10470 10470 10471 10472 10473 10476 10480 10483 10485 10488 10491 10494 10497 10500 10503 10505 10508 10510 10513 10516 10520 10523 10526 10530 10535 10540 10545 10549 10556 10561 10560 10558 10557 10557 10558 10559 10561 10563 10565
10382 10383 10382 10383 10383 10383 10383 10383 10383 10383 10382 10382 10383 10383 10384 10384 10383 10383 10386 10389 10390 10392 10395 10398 10403 10407 10410 10413 10415 10414 10418 10422 10425 10428 10432 10435 10437 10440 10443 10446 10448 10452 10455 10458 10461 10463 10463 10463 10464 10466 10467 10467 10468 10470 10472 10476 10480 10482 10485 10487 10489 10491 10495 10497 10500 10503 10506 10509 10513 10516 10519 10522 10526 10532 10537 10541 10543 10549 10555 10556 10553 10553 10554 10555 10556 10558 10559 10561
10377 10378 10377 10377 10377 10376 10376 10376 10376 10375 10375 10374 10374 10375 10376 10377 10375 10375 10379 10381 10381 10384 10389 10393 10397 10402 10405 10408 10407 10407 10411 10414 10417 10423 10429 10430 10432 10435 10439 10441 10444 10447 10450 10453 10457 10459 10459 10459 10460 10462 10463 10464 10465 10467 10469 10472 10476 10479 10481 10483 10485 10487 10490 10493 10495 10498 10502 10506 10509 10512 10515 10518 10522 10528 10532 10535 10537 10541 10547 10550 10548 10548 10549 10550 10552 10553 10555 10557
10372 10372 10371 10371 10371 10370 10369 10369 10368 10367 10367 10366 10366 10366 10367 10367 10367 10367 10369 10370 10372 10378 10383 10386 10391 10396 10399 10400 10398 10398 10403 10407 10413 10421 10425 10426 10428 10431 10434 10437 10440 10442 10444 10447 10452 10455 10455 10456 10456 10458 10460 10460 10462 10464 10465 10467 10471 10475 10477 10479 10481 10483 10486 10488 10490 10494 10498 10502 10505 10508 10511 10514 10518 10523 10527 10530 10531 10533 10538 10542 10542 10541 10542 10545 10547 10549 10551 10553
10368 10366 10365 10365 10365 10364 10363 10362 10360 10359 10358 10358 10358 10358 10358 10358 10358 10359 10359 10361 10367 10372 10375 10380 10385 10388 10390 10391 10390 10391 10396 10402 10409 10415 10417 10420 10423 10426 10430 10434 10435 10437 10439 10442 10446 10449 10451 10452 10452 10453 10456 10457 10459 10460 10462 10463 10466 10470 10473 10475 10477 10479 10481 10484 10486 10490 10494 10498 10501 10503 10506 10510 10514 10519 10523 10525 10527 10527 10529 10532 10534 10534 10536 10539 10542 10544 10547 10550
10363 10362 10360 10359 10358 10357 10356 10354 10353 10351 10350 10349 10349 10350 10349 10348 10349 10352 10351 10353 10361 10366 10368 10373 10378 10379 10381 10383 10383 10385 10391 10398 10403 10407 10410 10414 10417 10420 10425 10428 10430 10432 10435 10438 10440 10443 10446 10447 10449 10451 10452 10453 10455 10456 10458 10459 10462 10465 10468 10470 10472 10475 10477 10479 10482 10486 10490 10493 10496 10498 10502 10505 10510 10514 10518 10520 10521 10521 10522 10524 10527 10529 10531 10533 10536 10540 10544 10547
10358 10357 10355 10354 10352 10351 10349 10348 10346 10345 10344 10343 10342 10341 10342 10340 10342 10345 10344 10347 10355 10359 10361 10365 10368 10370 10374 10377 10378 10381 10386 10392 10397 10401 10405 10408 10411 10414 10418 10421 10424 10427 10430 10432 10434 10437 10440 10442 10445 10448 10448 10448 10449 10451 10453 10455 10458 10461 10463 10465 10467 10470 10472 10475 10478 10482 10486 10488 10491 10494 10496 10500 10504 10507 10510 10512 10514 10515 10516 10518 10521 10523 10525 10528 10531 10535 10539 10543
10352 10351 10349 10348 10347 10345 10344 10342 10340 10339 10338 10336 10335 10334 10335 10334 10336 10338 10338 10341 10347 10351 10352 10355 10358 10362 10367 10369 10370 10374 10379 10384 10390 10394 10398 10402 10405 10407 10410 10414 10418 10421 10424 10426 10428 10431 10434 10436 10439 10442 10443 10443 10445 10447 10447 10450 10454 10457 10459 10461 10463 10465 10468 10471 10473 10477 10480 10483 10486 10488 10490 10494 10497 10500 10502 10504 10506 10507 10509 10513 10515 10518 10520 10523 10526 10530 10535 10540
10347 10345 10343 10342 10340 10340 10338 10336 10335 10333 10331 10330 10329 10329 10329 10329 10330 10332 10332 10335 10339 10342 10343 10346 10350 10354 10359 10360 10362 10365 10370 10375 10381 10386 10391 10395 10397 10400 10404 10408 10411 10414 10417 10420 10422 10426 10429 10431 10433 10435 10437 10440 10442 10441 10442 10445 10449 10453 10455 10456 10458 10461 10464 10466 10469 10472 10475 10477 10480 10482 10484 10488 10491 10494 10496 10497 10499 10501 10504 10507 10511 10514 10516 10518 10521 10525 10529 10532
10343 10342 10340 10338 10336 10334 10333 10331 10329 10328 10326 10325 10325 10324 10323 10323 10324 10326 10327 10329 10332 10334 10335 10339 10343 10347 10351 10352 10354 10357 10362 10367 10372 10377 10382 10386 10389 10393 10396 10399 10402 10406 10410 10414 10418 10420 10422 10426 10428 10429 10432 10435 10436 10435 10438 10441 10444 10446 10448 10451 10454 10456 10459 10461 10464 10466 10469 10472 10474 10477 10480 10483 10486 10488 10490 10492 10495 10498 10500 10503 10506 10509 10511 10513 10515 10519 10521 10522
10339 10338 10337 10335 10332 10330 10328 10327 10325 10323 10322 10321 10320 10320 10319 10318 10319 10321 10323 10325 10326 10327 10330 10334 10338 10342 10345 10346 10348 10352 10356 10361 10365 10370 10375 10379 10383 10385 10388 10392 10397 10401 10404 10409 10412 10414 10416 10420 10422 10423 10426 10428 10428 10429 10433 10435 10436 10438 10443 10447 10449 10451 10453 10455 10458 10461 10463 10466 10469 10472 10476 10478 10481 10484 10487 10490 10492 10494 10495 10497 10500 10502 10504 10506 10509 10511 10513 10514